Location: ????????
(55.3939°N, 37.4780°E)
Time: 12:37:42
(UTC+00:00)

COSMOS 2455 - Pass Details

Date: 14 April 2026
Orbit: 901 x 907 km, 67.1° (Epoch: 9 May)

Event Time Altitude Azimuth Distance (km) Brightness Sun altitude
Rises 19:17:15 0° 313° (NW) 3,545 7.4 -19.3°
Reaches altitude 10° 19:19:53 10° 319° (NW) 2,602 6.5 -19.5°
Maximum altitude 19:25:42 47° 33° (NNE) 1,192 3.6 -20.0°
Enters shadow 19:29:24 22° 97° (E) 1,897 4.2 -20.2°
